Location: Newark
(49.1939°N, 0.8136°E)
Time: 12:44:01
(UTC+00:00)

Envisat - Pass Details

Date: 23 November 2019
Orbit: 764 x 766 km, 98.1° (Epoch: 06 December)

Event Time Altitude Azimuth Distance (km) Brightness Sun altitude
Rises 18:07:38 0° 176° (S) 3,220 6.3 -19.2°
Reaches altitude 10° 18:09:58 10° 180° (S) 2,298 5.6 -19.6°
Maximum altitude 18:14:58 58° 259° (W) 891 3.6 -20.4°
Drops below altitude 10° 18:20:00 10° 339° (NNW) 2,314 5.6 -21.2°
Sets 18:22:21 0° 343° (NNW) 3,244 6.4 -21.6°
